Вернуться в каталог

SL-16 DEB

АктивенLEO
NORAD 39908·DEBRIS·🇷🇺 Russia

Запущен Mar 26, 1993 с Baikonur Cosmodrome

Loading…

Ближайшие Пролёты (ближайшие 24 часа)

TLE

СвежийSource: Space-Track

Эпоха: Sep 12, 2026, 13:41 UTC

1 39908U 93016CJ  26255.57035198  .00000338  00000-0  15853-3 0  9995
2 39908  71.0040 317.5829 0011370 247.5217 112.4708 14.27182369637897

Отслеживайте SL-16 DEB в реальном времени с AllMySat

Download on the App Store